This is the latest recevied weather packets stored in our database for station/object KB1JDX. If no packets are shown the sender has not sent any weather packets the latest 10 day(s).
| Time | Temp. | Humidity | Pressure | Rain* | Wind** | Luminosity | Snow |
|---|---|---|---|---|---|---|---|
| 1777569565 | 11.11° C | 100% | 1006.1 hPa | 0 mm | 0 m/s | - | - |
| 1777568430 | 10.56° C | 100% | 1006.5 hPa | 1.52 mm | 0 m/s | - | - |
| 1777567230 | 10.56° C | 100% | 1006.6 hPa | 1.52 mm | 0 m/s | - | - |
| 1777566029 | 10.56° C | 100% | 1006.9 hPa | 1.52 mm | 0 m/s | - | - |
| 1777565965 | 10° C | 100% | 1006.8 hPa | 1.52 mm | 0 m/s | - | - |
| 1777563629 | 10° C | 100% | 1006.7 hPa | 1.02 mm | 0 m/s | - | - |
| 1777562429 | 10° C | 100% | 1007 hPa | 1.02 mm | 0 m/s | - | - |
| 1777562365 | 10° C | 100% | 1007 hPa | 1.02 mm | 0 m/s | - | - |
| 1777561229 | 10° C | 100% | 1007.1 hPa | 0.76 mm | 0 m/s | - | - |
| 1777560029 | 9.44° C | 100% | 1006.8 hPa | 0.76 mm | 0 m/s | - | - |
| 1777558829 | 9.44° C | 100% | 1007.1 hPa | 0.76 mm | 0 m/s | - | - |
| 1777558765 | 9.44° C | 100% | 1007.1 hPa | 0.76 mm | 0 m/s | - | - |
| 1777557629 | 9.44° C | 100% | 1007.2 hPa | 1.52 mm | 0 m/s | - | - |
| 1777556429 | 8.89° C | 100% | 1007.2 hPa | 1.52 mm | 0 m/s | - | - |
| 1777555232 | 8.89° C | 100% | 1007.5 hPa | 1.52 mm | 0 m/s | - | - |
| 1777555165 | 8.89° C | 100% | 1007.5 hPa | 1.52 mm | 0 m/s | - | - |
| 1777554029 | 8.89° C | 100% | 1007.6 hPa | 1.02 mm | 0 m/s | - | - |
| 1777552829 | 8.89° C | 100% | 1007.7 hPa | 1.02 mm | 0 m/s | - | - |
| 1777551629 | 8.33° C | 100% | 1007.7 hPa | 1.02 mm | 0 m/s | - | - |
| 1777551565 | 8.33° C | 100% | 1007.7 hPa | 1.02 mm | 0 m/s | - | - |
| 1777550429 | 8.33° C | 1% | 1007.9 hPa | 0 mm | 0 m/s | - | - |
| 1777549229 | 8.33° C | 100% | 1007.8 hPa | 0 mm | 0 m/s | - | - |
| 1777548030 | 8.33° C | 1% | 1007.9 hPa | 0 mm | 0 m/s | - | - |
| 1777547965 | 8.33° C | 1% | 1007.7 hPa | 0 mm | 0 m/s | - | - |
| 1777546829 | 8.33° C | 1% | 1007.3 hPa | 0 mm | 0 m/s | - | - |
* Rain latest hour (hover to see other rain measurements)
** Current wind speed in m/s (hover to see current wind gust speed)